Location: D�pe
(52.6057°N, 8.1808°E)
Time: 06:21:40
(UTC+00:00)

H-2A R/B - Pass Details

Date: 29 October 2020
Orbit: 577 x 656 km, 98.5° (Epoch: 01 December)

Event Time Altitude Azimuth Distance (km) Brightness Sun altitude
Rises 16:58:13 0° 13° (NNE) 2,854 5.2 -9.0°
Reaches altitude 10° 17:00:26 10° 10° (N) 1,936 4.4 -9.3°
Maximum altitude 17:04:34 64° 290° (WNW) 653 2.4 -9.9°
Drops below altitude 10° 17:08:37 10° 209° (SSW) 1,893 5.1 -10.5°
Sets 17:10:45 0° 206° (SSW) 2,784 5.9 -10.9°
